Flag for U.S.A. Weather past 2 weeks in Toccoa, Georgia, U.S.A.

Now
62 °F

Low clouds.


Feels Like: 62 °F
Forecast: 57 / 70 °F
Wind: 5 mph from Northwest

Location: Clemson-Oconee County Airport

Current Time: Apr 25, 2015 at 3:00:02 PM

Latest Report: Apr 25, 2015 at 1:54 PM


Visibility: 6 mi

Pressure: 29.75 "Hg

Humidity: 80%

Dew point: 56 °F

Location of ToccoaLocation

Historic Weather in Toccoa — Graph

°F

Toccoa temperature yesterday

Maximum temperature yesterday: 72 °F (at 4:54 PM)
Minimum temperature yesterday: 45 °F (at 6:54 AM)
Average temperature yesterday: 61 °F

Past Weeks' High & Low Weather Summary

 TemperatureHumidityPressure
High82 °F (Apr 14, 4:54 PM)91% (Apr 17, 9:01 PM)30.33 "Hg (Apr 17, 9:01 PM)
Low45 °F (Apr 22, 6:54 AM)18% (Apr 21, 6:54 PM)29.65 "Hg (Apr 20, 4:54 PM)
Average65 °F66%30.01 "Hg
* Reported Apr 10 1:54 PM — Apr 25 1:54 PM, Toccoa, Weather by CustomWeather, © 2015

Note: Actual official high and low records may vary slightly from our data, if they occured in-between our weather recording intervals... More about our weather records

Advertising

Toccoa weather history for previous 24 hours

 ConditionsComfort  
Time TempWeatherWind HumidityBarometerVisibility
1:54 PM
Sat, Apr 25
62 °FLow clouds.5 mph80%29.75 "Hg6 mi
12:54 PM61 °FLow clouds.3 mph83%29.77 "Hg5 mi
12:02 PM60 °FLow clouds.3 mph83%29.82 "Hg6 mi
10:54 AM59 °FFog.3 mph87%29.83 "Hg6 mi
9:54 AM57 °FFog.5 mph87%29.83 "Hg4 mi
9:03 AM56 °FLight rain. Fog.3 mph87%29.89 "Hg2 mi
8:54 AM56 °FRain. Fog.3 mph87%29.88 "Hg2 mi
7:54 AM56 °FRain. Fog.No wind87%29.91 "Hg2 mi
6:54 AM56 °FLight rain. Mostly cloudy.3 mph81%29.90 "Hg5 mi
5:54 AM57 °FLight rain. Overcast.No wind83%29.89 "Hg9 mi
4:54 AM58 °FLight rain. Overcast.5 mph72%29.89 "Hg8 mi
3:54 AM58 °FLight rain. Mostly cloudy.No wind81%29.89 "Hg10 mi
2:54 AM61 °FOvercast.No wind72%29.90 "Hg10 mi
1:54 AM60 °FLight rain. Mostly cloudy.3 mph67%29.92 "Hg10 mi
12:54 AM61 °FOvercast.No wind65%29.93 "Hg10 mi
11:54 PM
Fri, Apr 24
65 °FPassing clouds.No wind42%29.94 "Hg10 mi
10:54 PM62 °FClear.5 mph52%29.96 "Hg10 mi
9:54 PM65 °FClear.No wind40%29.96 "Hg10 mi
8:54 PM66 °FSunny.No wind34%29.96 "Hg10 mi
6:54 PM72 °FSunny.5 mph28%29.97 "Hg10 mi
5:54 PM71 °FSunny.5 mph29%29.97 "Hg10 mi
4:54 PM72 °FSunny.3 mph29%29.96 "Hg10 mi
3:54 PM71 °FSunny.5 mph28%29.98 "Hg10 mi
Weather by CustomWeather, © 2015

See weather overviewHow to use our weather pages